< < Back
Terminal Aerodrome Forecast


Current Version              Previous Versions:   1  2  3  4  5  6  7  8  9  

Terminal Aerodrome Forecast

532
FTUS44 KBMX 302300
TAFTCL
TAF
KTCL 302327Z 3100/3124 34004KT P6SM SKC
     FM311800 33008KT P6SM SKC
     FM312100 33017KT P6SM OVC050=

Latest METAR

212
SAUS70 KWBC 310400 RRF
MTRTCL
METAR KTCL 310353Z AUTO 00000KT 10SM CLR 09/07 A3004 RMK AO2 SLP171
T00890067


USA.gov is the U.S. government's official web portal to all federal, state and local government web resources and services.